| time (UTC) | temp C | wind direction | speed KPH | gust KPH | rain 1hr cm | rain 24hr cm | rain mn cm | humidity % | barometer mb |
| 20260502220027 | 24 | 191 | 1.6 | 0.0 | 0.00 | 0.00 | 0.00 | 22 | 1013.2 |
| 20260502214524 | 24 | 191 | 3.2 | 0.0 | 0.00 | 0.00 | 0.00 | 20 | 1013.4 |
| 20260502213004 | 23 | 197 | 4.8 | 0.0 | 0.00 | 0.00 | 0.00 | 22 | 1013.5 |
| 20260502211502 | 23 | 293 | 1.6 | 0.0 | 0.00 | 0.00 | 0.00 | 26 | 1013.7 |
| 20260502210042 | 23 | 296 | 4.8 | 0.0 | 0.00 | 0.00 | 0.00 | 28 | 1013.7 |
| 20260502204542 | 23 | 290 | 6.4 | 0.0 | 0.00 | 0.00 | 0.00 | 29 | 1013.9 |
| 20260502203028 | 22 | 284 | 3.2 | 0.0 | 0.00 | 0.00 | 0.00 | 30 | 1014.0 |
| 20260502201520 | 22 | 265 | 3.2 | 0.0 | 0.00 | 0.00 | 0.00 | 30 | 1014.2 |
| 20260502200002 | 22 | 253 | 1.6 | 0.0 | 0.00 | 0.00 | 0.00 | 30 | 1014.3 |
| 20260502194558 | 21 | 238 | 3.2 | 0.0 | 0.00 | 0.00 | 0.00 | 30 | 1014.4 |
| 20260502193047 | 21 | 290 | 6.4 | 0.0 | 0.00 | 0.00 | 0.00 | 34 | 1014.6 |
| 20260502191546 | 21 | 291 | 4.8 | 0.0 | 0.00 | 0.00 | 0.00 | 36 | 1014.7 |
| 20260502190041 | 21 | 284 | 6.4 | 0.0 | 0.00 | 0.00 | 0.00 | 35 | 1014.8 |
| 20260502184539 | 21 | 284 | 1.6 | 0.0 | 0.00 | 0.00 | 0.00 | 39 | 1014.9 |
| 20260502183038 | 20 | 283 | 0.0 | 0.0 | 0.00 | 0.00 | 0.00 | 37 | 1015.1 |
| 20260502181533 | 20 | 283 | 0.0 | 0.0 | 0.00 | 0.00 | 0.00 | 39 | 1015.3 |
| 20260502163038 | 16 | 284 | 1.6 | 0.0 | 0.00 | 0.00 | 0.00 | 47 | 1015.8 |
| 20260502161529 | 15 | 284 | 0.0 | 0.0 | 0.00 | 0.00 | 0.00 | 51 | 1015.8 |
| 20260502151540 | 9 | 284 | 0.0 | 0.0 | 0.00 | 0.00 | 0.00 | 82 | 1016.0 |
| 20260502123110 | 2 | 284 | 0.0 | 0.0 | 0.00 | 0.00 | 0.00 | 88 | 1016.1 |
| 20260502121554 | 2 | 284 | 0.0 | 0.0 | 0.00 | 0.00 | 0.00 | 88 | 1016.1 |
| 20260502114527 | 3 | 284 | 0.0 | 0.0 | 0.00 | 0.00 | 0.00 | 87 | 1016.0 |
| 20260502113008 | 3 | 284 | 0.0 | 0.0 | 0.00 | 0.00 | 0.00 | 92 | 1016.0 |
| 20260502111506 | 3 | 284 | 0.0 | 0.0 | 0.00 | 0.00 | 0.00 | 86 | 1016.0 |
| 20260502110048 | 3 | 284 | 0.0 | 0.0 | 0.00 | 0.00 | 0.00 | 86 | 1015.9 |
| 20260502104548 | 4 | 284 | 0.0 | 0.0 | 0.00 | 0.00 | 0.00 | 86 | 1016.0 |
| 20260502103029 | 4 | 284 | 0.0 | 0.0 | 0.00 | 0.00 | 0.00 | 85 | 1016.0 |
| 20260502101530 | 4 | 284 | 0.0 | 0.0 | 0.00 | 0.00 | 0.00 | 85 | 1016.0 |
| 20260502071520 | 6 | 284 | 0.0 | 0.0 | 0.00 | 0.00 | 0.00 | 80 | 1016.0 |
| 20260502070020 | 7 | 284 | 0.0 | 0.0 | 0.00 | 0.00 | 0.00 | 80 | 1016.0 |
| 20260502064558 | 7 | 284 | 0.0 | 0.0 | 0.00 | 0.00 | 0.00 | 79 | 1015.9 |
| 20260502063057 | 7 | 284 | 0.0 | 0.0 | 0.00 | 0.00 | 0.00 | 78 | 1015.8 |
| 20260502061538 | 7 | 284 | 0.0 | 0.0 | 0.00 | 0.00 | 0.00 | 77 | 1015.8 |
| 20260502060035 | 8 | 284 | 0.0 | 0.0 | 0.00 | 0.00 | 0.00 | 76 | 1015.7 |
| 20260502054515 | 8 | 284 | 0.0 | 0.0 | 0.00 | 0.00 | 0.00 | 75 | 1015.7 |
| 20260502053012 | 9 | 284 | 0.0 | 0.0 | 0.00 | 0.00 | 0.00 | 74 | 1015.7 |
| 20260502051601 | 9 | 284 | 0.0 | 0.0 | 0.00 | 0.00 | 0.00 | 73 | 1015.8 |
| 20260502050050 | 10 | 284 | 0.0 | 0.0 | 0.00 | 0.00 | 0.00 | 72 | 1015.7 |
| 20260502044531 | 10 | 284 | 0.0 | 0.0 | 0.00 | 0.00 | 0.00 | 70 | 1015.7 |
| 20260502043031 | 11 | 284 | 0.0 | 0.0 | 0.00 | 0.00 | 0.00 | 69 | 1015.7 |
| 20260502041512 | 11 | 284 | 0.0 | 0.0 | 0.00 | 0.00 | 0.00 | 67 | 1015.5 |
| 20260502040009 | 12 | 284 | 0.0 | 0.0 | 0.00 | 0.00 | 0.00 | 67 | 1015.4 |
| 20260502034508 | 13 | 284 | 0.0 | 0.0 | 0.00 | 0.00 | 0.00 | 64 | 1015.2 |
| 20260502033007 | 13 | 284 | 0.0 | 0.0 | 0.00 | 0.00 | 0.00 | 61 | 1015.1 |
| 20260502031507 | 14 | 284 | 0.0 | 0.0 | 0.00 | 0.00 | 0.00 | 60 | 1015.0 |
| 20260502030007 | 15 | 284 | 0.0 | 0.0 | 0.00 | 0.00 | 0.00 | 56 | 1014.9 |
| 20260502024506 | 16 | 284 | 0.0 | 0.0 | 0.00 | 0.00 | 0.00 | 51 | 1014.8 |
| 20260502023007 | 18 | 284 | 0.0 | 0.0 | 0.00 | 0.00 | 0.00 | 44 | 1014.8 |
| 20260502021546 | 19 | 284 | 0.0 | 0.0 | 0.00 | 0.00 | 0.00 | 42 | 1014.9 |
| 20260502020046 | 20 | 284 | 0.0 | 0.0 | 0.00 | 0.00 | 0.00 | 33 | 1014.9 |
| 20260502014530 | 20 | 284 | 0.0 | 0.0 | 0.00 | 0.00 | 0.00 | 34 | 1014.9 |
| 20260502013026 | 20 | 284 | 0.0 | 0.0 | 0.00 | 0.00 | 0.00 | 32 | 1015.0 |
| 20260502011507 | 21 | 284 | 1.6 | 0.0 | 0.00 | 0.00 | 0.00 | 30 | 1015.2 |
| 20260502010018 | 21 | 284 | 4.8 | 0.0 | 0.00 | 0.00 | 0.00 | 30 | 1015.3 |
| 20260502004602 | 21 | 284 | 4.8 | 0.0 | 0.00 | 0.00 | 0.00 | 30 | 1015.3 |
| 20260502003056 | 22 | 284 | 4.8 | 0.0 | 0.00 | 0.00 | 0.00 | 28 | 1015.5 |
| 20260502001557 | 22 | 284 | 1.6 | 0.0 | 0.00 | 0.00 | 0.00 | 25 | 1015.5 |
| 20260502000058 | 22 | 284 | 4.8 | 0.0 | 0.00 | 0.00 | 0.00 | 27 | 1015.7 |
| 20260501234550 | 22 | 286 | 8.0 | 0.0 | 0.00 | 0.00 | 0.00 | 28 | 1015.7 |
| 20260501233049 | 22 | 272 | 4.8 | 0.0 | 0.00 | 0.00 | 0.00 | 26 | 1015.9 |
| 20260501231553 | 23 | 300 | 3.2 | 0.0 | 0.00 | 0.00 | 0.00 | 25 | 1015.9 |
| 20260501230045 | 22 | 286 | 8.0 | 0.0 | 0.00 | 0.00 | 0.00 | 29 | 1016.1 |
| 20260501224529 | 22 | 280 | 4.8 | 0.0 | 0.00 | 0.00 | 0.00 | 27 | 1016.3 |
| 20260501223025 | 22 | 276 | 4.8 | 0.0 | 0.00 | 0.00 | 0.00 | 23 | 1016.5 |
| 20260501221510 | 22 | 190 | 8.0 | 0.0 | 0.00 | 0.00 | 0.00 | 22 | 1016.7 |